CW9971 Weather Reports


time (UTC)temp
C
wind
direction
speed
KPH
gust
KPH
rain 1hr
cm
rain 24hr
cm
rain mn
cm
humidity
%
barometer
mb
20260504214001 23 197 4.8 12.9 0.00 0.00 0.00 43 1010.7
20260504213522 23 167 3.2 12.9 0.00 0.00 0.00 48 1010.7
20260504213108 23 253 4.8 11.3 0.00 0.00 0.00 45 1010.7
20260504212508 23 180 3.2 9.7 0.00 0.00 0.00 47 1010.7
20260504212030 23 291 4.8 11.3 0.00 0.00 0.00 45 1010.8
20260504211549 23 299 4.8 14.5 0.00 0.00 0.00 47 1010.9
20260504211019 23 198 1.6 14.5 0.00 0.00 0.00 47 1011.0
20260504210541 23 211 3.2 12.9 0.00 0.00 0.00 47 1011.0
20260504210104 23 279 1.6 8.0 0.00 0.00 0.00 47 1011.1
20260504205531 23 251 1.6 11.3 0.00 0.00 0.00 46 1011.1
20260504205048 23 102 4.8 11.3 0.00 0.00 0.00 46 1011.2
20260504204614 23 84 1.6 9.7 0.00 0.00 0.00 47 1011.2
20260504204024 23 160 0.0 12.9 0.00 0.00 0.00 51 1011.3
20260504203549 23 226 3.2 16.1 0.00 0.00 0.00 49 1011.4
20260504203016 23 314 0.0 16.1 0.00 0.00 0.00 47 1011.3
20260504202533 23 187 3.2 9.7 0.00 0.00 0.00 48 1011.4
20260504202057 23 238 3.2 11.3 0.00 0.00 0.00 52 1011.5
20260504201509 23 321 1.6 6.4 0.00 0.00 0.00 51 1011.5
20260504201043 23 216 1.6 16.1 0.00 0.00 0.00 57 1011.6
20260504200510 22 235 3.2 16.1 0.00 0.00 0.00 50 1011.8
20260504200042 22 274 3.2 9.7 0.00 0.00 0.00 52 1011.9
20260504195556 22 11 1.6 11.3 0.00 0.00 0.00 52 1011.9
20260504195009 22 108 1.6 12.9 0.00 0.00 0.00 56 1012.1
20260504194541 22 211 6.4 12.9 0.00 0.00 0.00 56 1012.3
20260504194101 22 166 4.8 11.3 0.00 0.00 0.00 58 1012.2
20260504193525 22 263 3.2 16.1 0.00 0.00 0.00 51 1012.3
20260504193053 22 293 8.0 16.1 0.00 0.00 0.00 55 1012.4
20260504190502 21 205 3.2 14.5 0.00 0.00 0.00 54 1013.1
20260504190019 21 154 6.4 14.5 0.00 0.00 0.00 53 1013.1
20260504185556 21 146 6.4 12.9 0.00 0.00 0.00 52 1013.2
20260504185033 21 140 4.8 12.9 0.00 0.00 0.00 53 1013.3
20260504184555 21 144 3.2 11.3 0.00 0.00 0.00 55 1013.3
20260504184018 21 223 3.2 12.9 0.00 0.00 0.00 51 1013.4
20260504183542 21 268 3.2 14.5 0.00 0.00 0.00 51 1013.5
20260504183012 21 158 3.2 14.5 0.00 0.00 0.00 54 1013.6
20260504182534 21 279 6.4 14.5 0.00 0.00 0.00 55 1013.6
20260504182052 21 247 4.8 11.3 0.00 0.00 0.00 57 1013.7
20260504181513 21 320 3.2 11.3 0.00 0.00 0.00 55 1013.7
20260504181035 20 71 0.0 11.3 0.00 0.00 0.00 51 1013.8
20260504180507 20 223 3.2 16.1 0.00 0.00 0.00 55 1014.0
20260504180029 20 55 1.6 16.1 0.00 0.00 0.00 52 1014.1
20260504175551 20 216 3.2 14.5 0.00 0.00 0.00 58 1014.1
20260504175020 20 325 4.8 14.5 0.00 0.00 0.00 54 1014.1
20260504174545 20 247 0.0 8.0 0.00 0.00 0.00 54 1014.2
20260504174057 19 286 4.8 8.0 0.00 0.00 0.00 57 1014.2
20260504173525 19 249 3.2 11.3 0.00 0.00 0.00 58 1014.3
20260504173044 20 149 3.2 16.1 0.00 0.00 0.00 55 1014.5
20260504172512 19 346 6.4 16.1 0.00 0.00 0.00 57 1014.4
20260504172031 19 167 0.0 14.5 0.00 0.00 0.00 56 1014.4
20260504171544 18 157 6.4 14.5 0.00 0.00 0.00 53 1014.5
20260504171101 19 247 3.2 14.5 0.00 0.00 0.00 53 1014.6
20260504170526 18 267 4.8 16.1 0.00 0.00 0.00 56 1014.7
20260504151058 12 145 1.6 4.8 0.00 0.00 0.00 70 1016.8
20260504150515 12 171 1.6 4.8 0.00 0.00 0.00 72 1016.9
20260504141024 11 126 3.2 6.4 0.00 0.00 0.00 78 1017.9
20260504140545 11 145 1.6 8.0 0.00 0.00 0.00 79 1017.9
20260504130517 9 128 0.0 4.8 0.00 0.00 0.00 80 1017.5
20260504110556 3 288 1.6 3.2 0.00 0.00 0.00 96 1016.0
20260504100506 2 285 0.0 1.6 0.00 0.00 0.00 95 1016.3
20260504081545 2 313 0.0 1.6 0.00 0.00 0.00 94 1016.4
20260504081100 2 313 0.0 0.0 0.00 0.00 0.00 94 1016.4
20260504080516 2 313 0.0 1.6 0.00 0.00 0.00 94 1016.3
20260504050556 4 313 0.0 1.6 0.00 0.00 0.00 90 1016.4
20260504050021 4 313 0.0 1.6 0.00 0.00 0.00 90 1016.5
20260504045545 4 313 0.0 1.6 0.00 0.00 0.00 90 1016.4
20260504045011 4 313 0.0 0.0 0.00 0.00 0.00 91 1016.3
20260504044533 4 313 0.0 0.0 0.00 0.00 0.00 91 1016.3
20260504044054 4 313 0.0 0.0 0.00 0.00 0.00 90 1016.3
20260504043520 4 313 0.0 1.6 0.00 0.00 0.00 90 1016.2
20260504043044 5 313 0.0 1.6 0.00 0.00 0.00 90 1016.2
20260504042511 5 313 0.0 0.0 0.00 0.00 0.00 90 1016.2
20260504042031 5 313 0.0 0.0 0.00 0.00 0.00 90 1016.2
20260504041551 5 313 0.0 3.2 0.00 0.00 0.00 89 1016.2
20260504041008 5 313 0.0 3.2 0.00 0.00 0.00 89 1016.2
20260504040537 5 313 0.0 1.6 0.00 0.00 0.00 89 1016.2
20260504040056 5 313 0.0 1.6 0.00 0.00 0.00 88 1016.1
20260504035527 5 317 0.0 1.6 0.00 0.00 0.00 88 1016.0
20260504035048 5 317 0.0 3.2 0.00 0.00 0.00 88 1016.1
20260504034517 5 317 0.0 3.2 0.00 0.00 0.00 88 1016.1
20260504034036 5 310 0.0 1.6 0.00 0.00 0.00 87 1016.0
20260504033507 5 309 0.0 3.2 0.00 0.00 0.00 86 1016.0
20260504033026 5 316 0.0 3.2 0.00 0.00 0.00 86 1016.1
20260504032552 6 333 1.6 3.2 0.00 0.00 0.00 86 1016.0
20260504032013 6 313 0.0 3.2 0.00 0.00 0.00 86 1016.0
20260504031533 6 313 0.0 3.2 0.00 0.00 0.00 86 1016.0
20260504031101 6 330 1.6 3.2 0.00 0.00 0.00 86 1016.0
20260504030543 6 305 0.0 3.2 0.00 0.00 0.00 85 1015.8
20260504030021 6 305 0.0 3.2 0.00 0.00 0.00 85 1015.9
20260504025534 6 277 1.6 3.2 0.00 0.00 0.00 85 1016.0
20260504025058 6 313 0.0 3.2 0.00 0.00 0.00 85 1015.8
20260504024524 6 327 1.6 3.2 0.00 0.00 0.00 85 1015.8
20260504024051 6 314 0.0 3.2 0.00 0.00 0.00 85 1015.8
20260504023526 6 314 0.0 3.2 0.00 0.00 0.00 84 1016.0
20260504023057 6 309 0.0 1.6 0.00 0.00 0.00 84 1016.0
20260504022520 6 306 0.0 1.6 0.00 0.00 0.00 83 1015.9
20260504022041 6 312 0.0 0.0 0.00 0.00 0.00 84 1015.8
20260504021512 6 312 0.0 0.0 0.00 0.00 0.00 84 1015.7
20260504021041 6 312 0.0 0.0 0.00 0.00 0.00 85 1015.6
20260504020556 6 312 0.0 0.0 0.00 0.00 0.00 84 1015.6
20260504020015 7 311 0.0 0.0 0.00 0.00 0.00 83 1015.6
20260504015540 7 311 0.0 3.2 0.00 0.00 0.00 83 1015.7
20260504015011 7 311 0.0 3.2 0.00 0.00 0.00 81 1015.7
20260504014539 7 295 0.0 3.2 0.00 0.00 0.00 81 1015.7
20260504014053 7 296 0.0 3.2 0.00 0.00 0.00 81 1015.6
20260504013514 7 296 0.0 0.0 0.00 0.00 0.00 81 1015.4
20260504013045 7 291 0.0 0.0 0.00 0.00 0.00 81 1015.4
20260504012508 7 291 0.0 0.0 0.00 0.00 0.00 81 1015.4
20260504012029 7 291 0.0 0.0 0.00 0.00 0.00 79 1015.5
20260504011552 7 291 0.0 1.6 0.00 0.00 0.00 79 1015.6
20260504011012 8 291 0.0 1.6 0.00 0.00 0.00 78 1015.6
20260504010535 8 291 0.0 1.6 0.00 0.00 0.00 79 1015.6
20260504010055 8 291 0.0 1.6 0.00 0.00 0.00 77 1015.5
20260504005514 8 291 0.0 0.0 0.00 0.00 0.00 77 1015.5
20260504005038 8 291 0.0 0.0 0.00 0.00 0.00 75 1015.5
20260504004507 9 291 0.0 0.0 0.00 0.00 0.00 75 1015.5
20260504004031 9 291 0.0 0.0 0.00 0.00 0.00 74 1015.4
20260504003553 9 291 0.0 0.0 0.00 0.00 0.00 75 1015.3
20260504003015 10 291 0.0 0.0 0.00 0.00 0.00 74 1015.1
20260504002535 10 291 0.0 0.0 0.00 0.00 0.00 72 1015.2
20260504002058 10 291 0.0 0.0 0.00 0.00 0.00 71 1015.2
20260504001521 10 291 0.0 1.6 0.00 0.00 0.00 69 1015.0
20260504001042 10 291 0.0 1.6 0.00 0.00 0.00 72 1014.9
20260504000504 11 288 0.0 0.0 0.00 0.00 0.00 70 1014.9
20260504000023 11 286 0.0 0.0 0.00 0.00 0.00 68 1015.0
20260503235559 11 286 0.0 3.2 0.00 0.00 0.00 69 1015.1
20260503235016 12 341 0.0 3.2 0.00 0.00 0.00 66 1015.0
20260503234539 11 313 0.0 1.6 0.00 0.00 0.00 66 1015.0
20260503234011 12 303 0.0 3.2 0.00 0.00 0.00 64 1015.0
20260503233532 12 302 0.0 3.2 0.00 0.00 0.00 64 1015.2
20260503233101 13 301 0.0 4.8 0.00 0.00 0.00 60 1015.2
20260503232516 14 265 0.0 4.8 0.00 0.00 0.00 51 1015.2
20260503232038 14 266 0.0 4.8 0.00 0.00 0.00 52 1015.2
20260503231551 15 292 0.0 4.8 0.00 0.00 0.00 51 1015.3
20260503231012 15 298 1.6 6.4 0.00 0.00 0.00 50 1015.4
20260503230535 15 268 3.2 6.4 0.00 0.00 0.00 49 1015.4
20260503230007 15 266 1.6 9.7 0.00 0.00 0.00 48 1015.4
20260503225528 15 340 3.2 9.7 0.00 0.00 0.00 45 1015.3
20260503225051 15 346 1.6 12.9 0.00 0.00 0.00 47 1015.4
20260503224521 16 202 3.2 12.9 0.00 0.00 0.00 46 1015.4
20260503224045 16 263 1.6 12.9 0.00 0.00 0.00 46 1015.5
20260503223505 16 169 3.2 12.9 0.00 0.00 0.00 46 1015.6
20260503223037 16 173 1.6 9.7 0.00 0.00 0.00 44 1015.6
20260503222559 16 247 1.6 11.3 0.00 0.00 0.00 44 1015.6
20260503222033 16 287 4.8 11.3 0.00 0.00 0.00 45 1015.5
20260503221603 16 165 1.6 6.4 0.00 0.00 0.00 43 1015.6
20260503221020 16 155 0.0 11.3 0.00 0.00 0.00 42 1015.7
20260503220548 16 232 1.6 11.3 0.00 0.00 0.00 45 1015.8
20260503220008 16 248 3.2 11.3 0.00 0.00 0.00 43 1015.8
20260503215539 16 226 1.6 12.9 0.00 0.00 0.00 43 1015.7
20260503215101 16 208 4.8 16.1 0.00 0.00 0.00 42 1015.7
20260503214522 16 227 6.4 16.1 0.00 0.00 0.00 42 1015.9